Year,Month,Day,Hour,Minute,Value (Times are PST for windspeed in km/hr)
2015,09,05,00,00,3.00
2015,09,05,00,01,3.20
2015,09,05,00,02,2.30
2015,09,05,00,03,2.90
2015,09,05,00,04,3.70
2015,09,05,00,05,4.20
2015,09,05,00,06,3.80
2015,09,05,00,07,4.30
2015,09,05,00,08,4.50
2015,09,05,00,09,4.10
2015,09,05,00,10,1.60
2015,09,05,00,11,1.60
2015,09,05,00,12,2.00
2015,09,05,00,13,2.60
2015,09,05,00,14,0.60
2015,09,05,00,15,2.70
2015,09,05,00,16,3.30
2015,09,05,00,17,4.10
2015,09,05,00,18,3.20
2015,09,05,00,19,2.20
2015,09,05,00,20,1.70
2015,09,05,00,21,3.20
2015,09,05,00,22,1.80
2015,09,05,00,23,1.70
2015,09,05,00,24,2.70
2015,09,05,00,25,2.90
2015,09,05,00,26,5.30
2015,09,05,00,27,2.50
2015,09,05,00,28,3.80
2015,09,05,00,29,3.20
2015,09,05,00,30,3.40
2015,09,05,00,31,4.50
2015,09,05,00,32,4.20
2015,09,05,00,33,5.10
2015,09,05,00,34,4.00
2015,09,05,00,35,4.30
2015,09,05,00,36,3.20
2015,09,05,00,37,2.20
2015,09,05,00,38,2.90
2015,09,05,00,39,3.20
2015,09,05,00,40,2.20
2015,09,05,00,41,3.90
2015,09,05,00,42,3.40
2015,09,05,00,43,2.50
2015,09,05,00,44,2.60
2015,09,05,00,45,3.80
2015,09,05,00,46,3.20
2015,09,05,00,47,1.70
2015,09,05,00,48,2.40
2015,09,05,00,49,0.70
2015,09,05,00,50,0.10
2015,09,05,00,51,2.00
2015,09,05,00,52,3.10
2015,09,05,00,53,3.00
2015,09,05,00,54,1.20
2015,09,05,00,55,2.40
2015,09,05,00,56,3.60
2015,09,05,00,57,3.30
2015,09,05,00,58,3.40
2015,09,05,00,59,3.50
2015,09,05,01,00,2.20
2015,09,05,01,01,2.30
2015,09,05,01,02,2.30
2015,09,05,01,03,2.30
2015,09,05,01,04,3.00
2015,09,05,01,05,3.30
2015,09,05,01,06,1.90
2015,09,05,01,07,1.50
2015,09,05,01,08,2.60
2015,09,05,01,09,2.90
2015,09,05,01,10,2.90
2015,09,05,01,11,2.90
2015,09,05,01,12,2.50
2015,09,05,01,13,1.00
2015,09,05,01,14,3.20
2015,09,05,01,15,3.60
2015,09,05,01,16,2.00
2015,09,05,01,17,2.10
2015,09,05,01,18,2.60
2015,09,05,01,19,3.40
2015,09,05,01,20,2.90
2015,09,05,01,21,2.50
2015,09,05,01,22,2.70
2015,09,05,01,23,2.40
2015,09,05,01,24,2.40
2015,09,05,01,25,1.30
2015,09,05,01,26,0.30
2015,09,05,01,27,1.60
2015,09,05,01,28,2.80
2015,09,05,01,29,2.10
2015,09,05,01,30,1.80
2015,09,05,01,31,2.10
2015,09,05,01,32,2.20
2015,09,05,01,33,3.20
2015,09,05,01,34,3.50
2015,09,05,01,35,3.30
2015,09,05,01,36,3.00
2015,09,05,01,37,3.30
2015,09,05,01,38,2.10
2015,09,05,01,39,2.50
2015,09,05,01,40,2.60
2015,09,05,01,41,2.60
2015,09,05,01,42,2.80
2015,09,05,01,43,3.20
2015,09,05,01,44,3.50
2015,09,05,01,45,3.30
2015,09,05,01,46,3.50
2015,09,05,01,47,2.70
2015,09,05,01,48,3.00
2015,09,05,01,49,3.30
2015,09,05,01,50,3.60
2015,09,05,01,51,2.80
2015,09,05,01,52,2.00
2015,09,05,01,53,1.90
2015,09,05,01,54,2.50
2015,09,05,01,55,1.90
2015,09,05,01,56,2.60
2015,09,05,01,57,2.90
2015,09,05,01,58,3.00
2015,09,05,01,59,3.00
2015,09,05,02,00,3.20
2015,09,05,02,01,2.20
2015,09,05,02,02,1.90
2015,09,05,02,03,1.50
2015,09,05,02,04,1.60
2015,09,05,02,05,1.50
2015,09,05,02,06,2.90
2015,09,05,02,07,3.10
2015,09,05,02,08,2.10
2015,09,05,02,09,2.60
2015,09,05,02,10,2.60
2015,09,05,02,11,3.00
2015,09,05,02,12,3.70
2015,09,05,02,13,2.20
2015,09,05,02,14,2.70
2015,09,05,02,15,3.40
2015,09,05,02,16,3.80
2015,09,05,02,17,3.00
2015,09,05,02,18,3.00
2015,09,05,02,19,4.40
2015,09,05,02,20,4.50
2015,09,05,02,21,4.20
2015,09,05,02,22,2.20
2015,09,05,02,23,2.80
2015,09,05,02,24,2.50
2015,09,05,02,25,2.30
2015,09,05,02,26,1.60
2015,09,05,02,27,2.10
2015,09,05,02,28,2.00
2015,09,05,02,29,2.20
2015,09,05,02,30,2.30
2015,09,05,02,31,0.70
2015,09,05,02,32,0.80
2015,09,05,02,33,2.80
2015,09,05,02,34,4.10
2015,09,05,02,35,3.30
2015,09,05,02,36,3.00
2015,09,05,02,37,1.10
2015,09,05,02,38,0.30
2015,09,05,02,39,2.90
2015,09,05,02,40,3.30
2015,09,05,02,41,1.30
2015,09,05,02,42,1.20
2015,09,05,02,43,2.40
2015,09,05,02,44,2.40
2015,09,05,02,45,1.70
2015,09,05,02,46,2.10
2015,09,05,02,47,1.80
2015,09,05,02,48,2.20
2015,09,05,02,49,2.10
2015,09,05,02,50,2.30
2015,09,05,02,51,2.40
2015,09,05,02,52,3.00
2015,09,05,02,53,3.30
2015,09,05,02,54,3.30
2015,09,05,02,55,2.90
2015,09,05,02,56,3.30
2015,09,05,02,57,3.40
2015,09,05,02,58,2.90
2015,09,05,02,59,2.50
2015,09,05,03,00,2.50
2015,09,05,03,01,1.90
2015,09,05,03,02,2.50
2015,09,05,03,03,3.00
2015,09,05,03,04,2.80
2015,09,05,03,05,2.00
2015,09,05,03,06,1.60
2015,09,05,03,07,0.90
2015,09,05,03,08,1.70
2015,09,05,03,09,1.90
2015,09,05,03,10,2.30
2015,09,05,03,11,1.20
2015,09,05,03,12,2.20
2015,09,05,03,13,2.60
2015,09,05,03,14,2.40
2015,09,05,03,15,3.50
2015,09,05,03,16,3.20
2015,09,05,03,17,3.00
2015,09,05,03,18,3.80
2015,09,05,03,19,3.70
2015,09,05,03,20,3.60
2015,09,05,03,21,3.10
2015,09,05,03,22,3.00
2015,09,05,03,23,2.90
2015,09,05,03,24,3.80
2015,09,05,03,25,3.00
2015,09,05,03,26,2.10
2015,09,05,03,27,2.80
2015,09,05,03,28,3.60
2015,09,05,03,29,2.90
2015,09,05,03,30,3.40
2015,09,05,03,31,3.60
2015,09,05,03,32,3.80
2015,09,05,03,33,3.60
2015,09,05,03,34,3.50
2015,09,05,03,35,4.00
2015,09,05,03,36,4.00
2015,09,05,03,37,3.70
2015,09,05,03,38,3.80
2015,09,05,03,39,2.80
2015,09,05,03,40,2.60
2015,09,05,03,41,3.10
2015,09,05,03,42,2.70
2015,09,05,03,43,2.10
2015,09,05,03,44,2.80
2015,09,05,03,45,2.90
2015,09,05,03,46,2.80
2015,09,05,03,47,0.40
2015,09,05,03,48,1.00
2015,09,05,03,49,2.20
2015,09,05,03,50,2.60
2015,09,05,03,51,2.50
2015,09,05,03,52,2.30
2015,09,05,03,53,3.60
2015,09,05,03,54,2.70
2015,09,05,03,55,2.20
2015,09,05,03,56,2.50
2015,09,05,03,57,2.40
2015,09,05,03,58,2.00
2015,09,05,03,59,3.70
2015,09,05,04,00,3.20
2015,09,05,04,01,4.10
2015,09,05,04,02,3.90
2015,09,05,04,03,3.00
2015,09,05,04,04,2.30
2015,09,05,04,05,3.50
2015,09,05,04,06,3.40
2015,09,05,04,07,4.10
2015,09,05,04,08,3.00
2015,09,05,04,09,3.50
2015,09,05,04,10,4.30
2015,09,05,04,11,3.80
2015,09,05,04,12,2.70
2015,09,05,04,13,2.80
2015,09,05,04,14,2.90
2015,09,05,04,15,2.80
2015,09,05,04,16,3.00
2015,09,05,04,17,2.50
2015,09,05,04,18,3.00
2015,09,05,04,19,2.80
2015,09,05,04,20,2.30
2015,09,05,04,21,0.10
2015,09,05,04,22,0.00
2015,09,05,04,23,0.00
2015,09,05,04,24,2.20
2015,09,05,04,25,2.90
2015,09,05,04,26,3.40
2015,09,05,04,27,3.00
2015,09,05,04,28,2.90
2015,09,05,04,29,3.50
2015,09,05,04,30,3.70
2015,09,05,04,31,4.00
2015,09,05,04,32,3.40
2015,09,05,04,33,3.90
2015,09,05,04,34,3.50
2015,09,05,04,35,3.00
2015,09,05,04,36,4.00
2015,09,05,04,37,3.40
2015,09,05,04,38,2.00
2015,09,05,04,39,2.80
2015,09,05,04,40,3.80
2015,09,05,04,41,3.70
2015,09,05,04,42,2.80
2015,09,05,04,43,2.60
2015,09,05,04,44,3.00
2015,09,05,04,45,4.60
2015,09,05,04,46,2.90
2015,09,05,04,47,1.70
2015,09,05,04,48,1.20
2015,09,05,04,49,0.90
2015,09,05,04,50,2.10
2015,09,05,04,51,1.70
2015,09,05,04,52,0.90
2015,09,05,04,53,0.20
2015,09,05,04,54,0.00
2015,09,05,04,55,0.00
2015,09,05,04,56,0.00
2015,09,05,04,57,0.00
2015,09,05,04,58,0.00
2015,09,05,04,59,0.00
2015,09,05,05,00,0.10
2015,09,05,05,01,0.70
2015,09,05,05,02,0.70
2015,09,05,05,03,1.20
2015,09,05,05,04,0.40
2015,09,05,05,05,0.10
2015,09,05,05,06,0.20
2015,09,05,05,07,2.00
2015,09,05,05,08,2.20
2015,09,05,05,09,1.80
2015,09,05,05,10,2.40
2015,09,05,05,11,3.80
2015,09,05,05,12,4.00
2015,09,05,05,13,2.90
2015,09,05,05,14,3.80
2015,09,05,05,15,2.90
2015,09,05,05,16,3.70
2015,09,05,05,17,3.70
2015,09,05,05,18,3.00
2015,09,05,05,19,2.10
2015,09,05,05,20,2.10
2015,09,05,05,21,2.50
2015,09,05,05,22,2.60
2015,09,05,05,23,3.10
2015,09,05,05,24,3.70
2015,09,05,05,25,2.70
2015,09,05,05,26,3.30
2015,09,05,05,27,3.20
2015,09,05,05,28,2.80
2015,09,05,05,29,2.50
2015,09,05,05,30,2.90
2015,09,05,05,31,2.70
2015,09,05,05,32,2.10
2015,09,05,05,33,2.20
2015,09,05,05,34,3.30
2015,09,05,05,35,2.70
2015,09,05,05,36,2.80
2015,09,05,05,37,2.40
2015,09,05,05,38,3.00
2015,09,05,05,39,3.60
2015,09,05,05,40,2.90
2015,09,05,05,41,1.80
2015,09,05,05,42,1.20
2015,09,05,05,43,1.30
2015,09,05,05,44,1.50
2015,09,05,05,45,1.90
2015,09,05,05,46,1.20
2015,09,05,05,47,0.30
2015,09,05,05,48,0.00
2015,09,05,05,49,0.00
2015,09,05,05,50,0.00
2015,09,05,05,51,0.00
2015,09,05,05,52,0.00
2015,09,05,05,53,1.10
2015,09,05,05,54,1.80
2015,09,05,05,55,1.40
2015,09,05,05,56,1.60
2015,09,05,05,57,2.00
2015,09,05,05,58,2.30
2015,09,05,05,59,2.80
2015,09,05,06,00,2.10
2015,09,05,06,01,0.80
2015,09,05,06,02,1.80
2015,09,05,06,03,1.20
2015,09,05,06,04,0.40
2015,09,05,06,05,0.10
2015,09,05,06,06,1.60
2015,09,05,06,07,3.40
2015,09,05,06,08,2.40
2015,09,05,06,09,1.40
2015,09,05,06,10,1.20
2015,09,05,06,11,1.10
2015,09,05,06,12,1.90
2015,09,05,06,13,2.70
2015,09,05,06,14,2.80
2015,09,05,06,15,2.30
2015,09,05,06,16,2.90
2015,09,05,06,17,3.00
2015,09,05,06,18,3.00
2015,09,05,06,19,2.20
2015,09,05,06,20,2.20
2015,09,05,06,21,1.70
2015,09,05,06,22,0.30
2015,09,05,06,23,0.00
2015,09,05,06,24,0.00
2015,09,05,06,25,0.00
2015,09,05,06,26,0.00
2015,09,05,06,27,0.00
2015,09,05,06,28,0.00
2015,09,05,06,29,0.00
2015,09,05,06,30,0.00
2015,09,05,06,31,0.00
2015,09,05,06,32,0.00
2015,09,05,06,33,0.00
2015,09,05,06,34,2.10
2015,09,05,06,35,3.70
2015,09,05,06,36,4.30
2015,09,05,06,37,3.70
2015,09,05,06,38,3.70
2015,09,05,06,39,3.90
2015,09,05,06,40,3.30
2015,09,05,06,41,3.10
2015,09,05,06,42,3.30
2015,09,05,06,43,2.90
2015,09,05,06,44,2.30
2015,09,05,06,45,1.80
2015,09,05,06,46,2.30
2015,09,05,06,47,4.40
2015,09,05,06,48,4.00
2015,09,05,06,49,3.30
2015,09,05,06,50,3.10
2015,09,05,06,51,2.40
2015,09,05,06,52,1.80
2015,09,05,06,53,1.30
2015,09,05,06,54,0.40
2015,09,05,06,55,0.30
2015,09,05,06,56,0.60
2015,09,05,06,57,0.20
2015,09,05,06,58,0.00
2015,09,05,06,59,0.00
2015,09,05,07,00,0.00
2015,09,05,07,01,0.00
2015,09,05,07,02,0.00
2015,09,05,07,03,0.00
2015,09,05,07,04,1.80
2015,09,05,07,05,3.70
2015,09,05,07,06,4.00
2015,09,05,07,07,4.30
2015,09,05,07,08,4.20
2015,09,05,07,09,3.90
2015,09,05,07,10,4.40
2015,09,05,07,11,4.30
2015,09,05,07,12,3.40
2015,09,05,07,13,2.50
2015,09,05,07,14,2.70
2015,09,05,07,15,3.10
2015,09,05,07,16,2.60
2015,09,05,07,17,2.20
2015,09,05,07,18,1.90
2015,09,05,07,19,2.10
2015,09,05,07,20,2.50
2015,09,05,07,21,3.00
2015,09,05,07,22,3.00
2015,09,05,07,23,2.50
2015,09,05,07,24,2.70
2015,09,05,07,25,2.60
2015,09,05,07,26,2.20
2015,09,05,07,27,1.60
2015,09,05,07,28,1.30
2015,09,05,07,29,1.60
2015,09,05,07,30,1.20
2015,09,05,07,31,1.50
2015,09,05,07,32,2.10
2015,09,05,07,33,2.40
2015,09,05,07,34,2.10
2015,09,05,07,35,2.10
2015,09,05,07,36,2.20
2015,09,05,07,37,2.20
2015,09,05,07,38,1.10
2015,09,05,07,39,0.00
2015,09,05,07,40,0.00
2015,09,05,07,41,0.00
2015,09,05,07,42,0.00
2015,09,05,07,43,0.00
2015,09,05,07,44,0.00
2015,09,05,07,45,0.00
2015,09,05,07,46,0.00
2015,09,05,07,47,0.20
2015,09,05,07,48,0.00
2015,09,05,07,49,0.00
2015,09,05,07,50,0.00
2015,09,05,07,51,0.00
2015,09,05,07,52,0.00
2015,09,05,07,53,0.00
2015,09,05,07,54,0.00
2015,09,05,07,55,0.30
2015,09,05,07,56,1.20
2015,09,05,07,57,2.10
2015,09,05,07,58,0.60
2015,09,05,07,59,0.00
2015,09,05,08,00,0.00
2015,09,05,08,01,0.00
2015,09,05,08,02,0.00
2015,09,05,08,03,0.00
2015,09,05,08,04,0.00
2015,09,05,08,05,0.00
2015,09,05,08,06,0.00
2015,09,05,08,07,0.00
2015,09,05,08,08,0.00
2015,09,05,08,09,0.00
2015,09,05,08,10,0.00
2015,09,05,08,11,0.00
2015,09,05,08,12,0.00
2015,09,05,08,13,0.00
2015,09,05,08,14,0.00
2015,09,05,08,15,0.00
2015,09,05,08,16,0.00
2015,09,05,08,17,0.00
2015,09,05,08,18,0.40
2015,09,05,08,19,0.30
2015,09,05,08,20,1.30
2015,09,05,08,21,2.10
2015,09,05,08,22,1.30
2015,09,05,08,23,0.20
2015,09,05,08,24,0.00
2015,09,05,08,25,0.00
2015,09,05,08,26,0.00
2015,09,05,08,27,0.00
2015,09,05,08,28,0.00
2015,09,05,08,29,0.00
2015,09,05,08,30,0.00
2015,09,05,08,31,0.00
2015,09,05,08,32,0.00
2015,09,05,08,33,0.00
2015,09,05,08,34,0.10
2015,09,05,08,35,0.60
2015,09,05,08,36,1.00
2015,09,05,08,37,1.20
2015,09,05,08,38,1.10
2015,09,05,08,39,1.00
2015,09,05,08,40,1.70
2015,09,05,08,41,1.90
2015,09,05,08,42,1.80
2015,09,05,08,43,0.10
2015,09,05,08,44,0.50
2015,09,05,08,45,0.00
2015,09,05,08,46,0.00
2015,09,05,08,47,0.30
2015,09,05,08,48,2.40
2015,09,05,08,49,1.10
2015,09,05,08,50,1.80
2015,09,05,08,51,1.80
2015,09,05,08,52,1.80
2015,09,05,08,53,0.80
2015,09,05,08,54,0.10
2015,09,05,08,55,0.60
2015,09,05,08,56,0.30
2015,09,05,08,57,1.60
2015,09,05,08,58,3.80
2015,09,05,08,59,1.80
2015,09,05,09,00,1.00
2015,09,05,09,01,0.40
2015,09,05,09,02,0.40
2015,09,05,09,03,0.40
2015,09,05,09,04,1.00
2015,09,05,09,05,1.40
2015,09,05,09,06,1.40
2015,09,05,09,07,1.90
2015,09,05,09,08,2.30
2015,09,05,09,09,3.80
2015,09,05,09,10,3.80
2015,09,05,09,11,4.10
2015,09,05,09,12,2.90
2015,09,05,09,13,1.30
2015,09,05,09,14,1.00
2015,09,05,09,15,0.80
2015,09,05,09,16,0.80
2015,09,05,09,17,1.60
2015,09,05,09,18,1.20
2015,09,05,09,19,2.90
2015,09,05,09,20,1.70
2015,09,05,09,21,1.70
2015,09,05,09,22,0.70
2015,09,05,09,23,2.00
2015,09,05,09,24,3.30
2015,09,05,09,25,3.00
2015,09,05,09,26,1.90
2015,09,05,09,27,3.10
2015,09,05,09,28,2.00
2015,09,05,09,29,2.20
2015,09,05,09,30,1.60
2015,09,05,09,31,0.60
2015,09,05,09,32,0.90
2015,09,05,09,33,0.70
2015,09,05,09,34,3.50
2015,09,05,09,35,2.90
2015,09,05,09,36,4.00
2015,09,05,09,37,2.30
2015,09,05,09,38,1.90
2015,09,05,09,39,1.30
2015,09,05,09,40,0.60
2015,09,05,09,41,1.00
2015,09,05,09,42,2.00
2015,09,05,09,43,1.80
2015,09,05,09,44,0.50
2015,09,05,09,45,1.40
2015,09,05,09,46,0.80
2015,09,05,09,47,0.00
2015,09,05,09,48,0.30
2015,09,05,09,49,1.40
2015,09,05,09,50,1.30
2015,09,05,09,51,1.90
2015,09,05,09,52,0.20
2015,09,05,09,53,1.80
2015,09,05,09,54,1.40
2015,09,05,09,55,0.70
2015,09,05,09,56,2.80
2015,09,05,09,57,2.70
2015,09,05,09,58,2.80
2015,09,05,09,59,3.00
2015,09,05,10,00,4.00
2015,09,05,10,01,4.10
2015,09,05,10,02,1.60
2015,09,05,10,03,0.10
2015,09,05,10,04,0.30
2015,09,05,10,05,3.80
2015,09,05,10,06,2.30
2015,09,05,10,07,2.10
2015,09,05,10,08,1.60
2015,09,05,10,09,0.70
2015,09,05,10,10,0.60
2015,09,05,10,11,2.90
2015,09,05,10,12,3.10
2015,09,05,10,13,1.30
2015,09,05,10,14,2.80
2015,09,05,10,15,3.00
2015,09,05,10,16,2.00
2015,09,05,10,17,1.20
2015,09,05,10,18,1.60
2015,09,05,10,19,2.50
2015,09,05,10,20,1.40
2015,09,05,10,21,0.10
2015,09,05,10,22,2.20
2015,09,05,10,23,3.80
2015,09,05,10,24,1.70
2015,09,05,10,25,1.30
2015,09,05,10,26,2.50
2015,09,05,10,27,2.80
2015,09,05,10,28,1.90
2015,09,05,10,29,2.90
2015,09,05,10,30,2.00
2015,09,05,10,31,1.90
2015,09,05,10,32,3.10
2015,09,05,10,33,1.90
2015,09,05,10,34,2.00
2015,09,05,10,35,5.10
2015,09,05,10,36,4.60
2015,09,05,10,37,4.50
2015,09,05,10,38,3.90
2015,09,05,10,39,4.20
2015,09,05,10,40,2.60
2015,09,05,10,41,2.70
2015,09,05,10,42,2.10
2015,09,05,10,43,4.00
2015,09,05,10,44,3.50
2015,09,05,10,45,2.20
2015,09,05,10,46,1.40
2015,09,05,10,47,4.00
2015,09,05,10,48,3.80
2015,09,05,10,49,0.20
2015,09,05,10,50,0.00
2015,09,05,10,51,1.20
2015,09,05,10,52,2.90
2015,09,05,10,53,2.80
2015,09,05,10,54,0.90
2015,09,05,10,55,2.30
2015,09,05,10,56,2.70
2015,09,05,10,57,3.10
2015,09,05,10,58,2.20
2015,09,05,10,59,1.20
2015,09,05,11,00,2.20
2015,09,05,11,01,2.20
2015,09,05,11,02,6.00
2015,09,05,11,03,5.30
2015,09,05,11,04,4.40
2015,09,05,11,05,5.60
2015,09,05,11,06,4.70
2015,09,05,11,07,3.40
2015,09,05,11,08,4.20
2015,09,05,11,09,5.60
2015,09,05,11,10,2.20
2015,09,05,11,11,0.20
2015,09,05,11,12,0.80
2015,09,05,11,13,1.20
2015,09,05,11,14,4.90
2015,09,05,11,15,3.00
2015,09,05,11,16,5.10
2015,09,05,11,17,6.70
2015,09,05,11,18,4.30
2015,09,05,11,19,1.10
2015,09,05,11,20,3.20
2015,09,05,11,21,4.40
2015,09,05,11,22,1.70
2015,09,05,11,23,2.40
2015,09,05,11,24,3.50
2015,09,05,11,25,3.40
2015,09,05,11,26,1.60
2015,09,05,11,27,1.50
2015,09,05,11,28,2.60
2015,09,05,11,29,2.30
2015,09,05,11,30,2.80
2015,09,05,11,31,5.20
2015,09,05,11,32,5.60
2015,09,05,11,33,3.70
2015,09,05,11,34,6.00
2015,09,05,11,35,7.20
2015,09,05,11,36,7.90
2015,09,05,11,37,7.30
2015,09,05,11,38,4.20
2015,09,05,11,39,2.40
2015,09,05,11,40,3.00
2015,09,05,11,41,1.60
2015,09,05,11,42,2.50
2015,09,05,11,43,2.50
2015,09,05,11,44,6.70
2015,09,05,11,45,7.10
2015,09,05,11,46,6.30
2015,09,05,11,47,6.70
2015,09,05,11,48,3.20
2015,09,05,11,49,2.70
2015,09,05,11,50,3.30
2015,09,05,11,51,2.50
2015,09,05,11,52,6.30
2015,09,05,11,53,6.50
2015,09,05,11,54,3.80
2015,09,05,11,55,2.80
2015,09,05,11,56,3.30
2015,09,05,11,57,5.50
2015,09,05,11,58,4.80
2015,09,05,11,59,8.70
2015,09,05,12,00,7.10
2015,09,05,12,01,3.50
2015,09,05,12,02,3.40
2015,09,05,12,03,3.20
2015,09,05,12,04,4.90
2015,09,05,12,05,3.50
2015,09,05,12,06,4.20
2015,09,05,12,07,4.20
2015,09,05,12,08,5.80
2015,09,05,12,09,6.20
2015,09,05,12,10,11.80
2015,09,05,12,11,7.90
2015,09,05,12,12,3.20
2015,09,05,12,13,1.40
2015,09,05,12,14,4.80
2015,09,05,12,15,7.00
2015,09,05,12,16,7.00
2015,09,05,12,17,5.70
2015,09,05,12,18,4.40
2015,09,05,12,19,2.30
2015,09,05,12,20,5.50
2015,09,05,12,21,6.10
2015,09,05,12,22,3.10
2015,09,05,12,23,3.90
2015,09,05,12,24,8.60
2015,09,05,12,25,5.90
2015,09,05,12,26,3.40
2015,09,05,12,27,3.00
2015,09,05,12,28,2.90
2015,09,05,12,29,4.40
2015,09,05,12,30,3.40
2015,09,05,12,31,3.70
2015,09,05,12,32,6.50
2015,09,05,12,33,6.70
2015,09,05,12,34,5.70
2015,09,05,12,35,3.00
2015,09,05,12,36,6.90
2015,09,05,12,37,5.10
2015,09,05,12,38,6.50
2015,09,05,12,39,3.70
2015,09,05,12,40,5.70
2015,09,05,12,41,4.70
2015,09,05,12,42,7.30
2015,09,05,12,43,7.90
2015,09,05,12,44,7.20
2015,09,05,12,45,7.40
2015,09,05,12,46,6.20
2015,09,05,12,47,4.30
2015,09,05,12,48,3.30
2015,09,05,12,49,3.70
2015,09,05,12,50,4.60
2015,09,05,12,51,3.30
2015,09,05,12,52,8.60
2015,09,05,12,53,5.30
2015,09,05,12,54,4.50
2015,09,05,12,55,4.40
2015,09,05,12,56,6.80
2015,09,05,12,57,7.70
2015,09,05,12,58,4.80
2015,09,05,12,59,7.30
2015,09,05,13,00,5.70
2015,09,05,13,01,8.60
2015,09,05,13,02,8.40
2015,09,05,13,03,6.60
2015,09,05,13,04,5.70
2015,09,05,13,05,5.00
2015,09,05,13,06,2.10
2015,09,05,13,07,3.80
2015,09,05,13,08,3.70
2015,09,05,13,09,2.80
2015,09,05,13,10,6.30
2015,09,05,13,11,4.40
2015,09,05,13,12,4.40
2015,09,05,13,13,5.80
2015,09,05,13,14,5.00
2015,09,05,13,15,7.50
2015,09,05,13,16,5.70
2015,09,05,13,17,6.70
2015,09,05,13,18,5.10
2015,09,05,13,19,4.80
2015,09,05,13,20,3.70
2015,09,05,13,21,2.20
2015,09,05,13,22,2.60
2015,09,05,13,23,3.90
2015,09,05,13,24,4.20
2015,09,05,13,25,4.70
2015,09,05,13,26,5.20
2015,09,05,13,27,5.70
2015,09,05,13,28,4.00
2015,09,05,13,29,6.60
2015,09,05,13,30,2.40
2015,09,05,13,31,3.90
2015,09,05,13,32,5.20
2015,09,05,13,33,5.40
2015,09,05,13,34,5.10
2015,09,05,13,35,5.30
2015,09,05,13,36,5.40
2015,09,05,13,37,4.70
2015,09,05,13,38,3.60
2015,09,05,13,39,2.60
2015,09,05,13,40,2.20
2015,09,05,13,41,2.30
2015,09,05,13,42,2.20
2015,09,05,13,43,2.80
2015,09,05,13,44,4.90
2015,09,05,13,45,4.10
2015,09,05,13,46,4.40
2015,09,05,13,47,4.40
2015,09,05,13,48,2.60
2015,09,05,13,49,4.50
2015,09,05,13,50,4.90
2015,09,05,13,51,3.00
2015,09,05,13,52,2.60
2015,09,05,13,53,4.70
2015,09,05,13,54,4.30
2015,09,05,13,55,4.90
2015,09,05,13,56,5.20
2015,09,05,13,57,3.50
2015,09,05,13,58,3.30
2015,09,05,13,59,2.10
2015,09,05,14,00,2.90
2015,09,05,14,01,2.70
2015,09,05,14,02,2.40
2015,09,05,14,03,2.00
2015,09,05,14,04,3.20
2015,09,05,14,05,2.30
2015,09,05,14,06,1.90
2015,09,05,14,07,2.40
2015,09,05,14,08,3.50
2015,09,05,14,09,2.10
2015,09,05,14,10,6.70
2015,09,05,14,11,3.80
2015,09,05,14,12,3.40
2015,09,05,14,13,2.90
2015,09,05,14,14,3.30
2015,09,05,14,15,2.70
2015,09,05,14,16,2.20
2015,09,05,14,17,2.30
2015,09,05,14,18,2.40
2015,09,05,14,19,1.30
2015,09,05,14,20,4.00
2015,09,05,14,21,3.60
2015,09,05,14,22,3.80
2015,09,05,14,23,3.00
2015,09,05,14,24,4.00
2015,09,05,14,25,3.50
2015,09,05,14,26,0.60
2015,09,05,14,27,0.90
2015,09,05,14,28,1.70
2015,09,05,14,29,2.40
2015,09,05,14,30,3.40
2015,09,05,14,31,3.50
2015,09,05,14,32,4.90
2015,09,05,14,33,5.40
2015,09,05,14,34,2.10
2015,09,05,14,35,0.90
2015,09,05,14,36,2.90
2015,09,05,14,37,2.30
2015,09,05,14,38,2.50
2015,09,05,14,39,3.00
2015,09,05,14,40,4.40
2015,09,05,14,41,3.30
2015,09,05,14,42,2.20
2015,09,05,14,43,2.20
2015,09,05,14,44,2.20
2015,09,05,14,45,4.10
2015,09,05,14,46,4.00
2015,09,05,14,47,3.70
2015,09,05,14,48,2.80
2015,09,05,14,49,2.00
2015,09,05,14,50,1.80
2015,09,05,14,51,3.90
2015,09,05,14,52,2.90
2015,09,05,14,53,2.40
2015,09,05,14,54,1.20
2015,09,05,14,55,1.00
2015,09,05,14,56,1.60
2015,09,05,14,57,2.20
2015,09,05,14,58,1.70
2015,09,05,14,59,1.50
2015,09,05,15,00,0.50
2015,09,05,15,01,0.20
2015,09,05,15,02,0.80
2015,09,05,15,03,2.50
2015,09,05,15,04,2.80
2015,09,05,15,05,4.40
2015,09,05,15,06,2.80
2015,09,05,15,07,3.20
2015,09,05,15,08,2.90
2015,09,05,15,09,5.80
2015,09,05,15,10,3.80
2015,09,05,15,11,1.40
2015,09,05,15,12,0.60
2015,09,05,15,13,0.60
2015,09,05,15,14,0.90
2015,09,05,15,15,2.30
2015,09,05,15,16,1.80
2015,09,05,15,17,0.20
2015,09,05,15,18,0.30
2015,09,05,15,19,0.70
2015,09,05,15,20,1.30
2015,09,05,15,21,1.20
2015,09,05,15,22,2.40
2015,09,05,15,23,2.60
2015,09,05,15,24,3.40
2015,09,05,15,25,3.50
2015,09,05,15,26,4.40
2015,09,05,15,27,3.80
2015,09,05,15,28,1.70
2015,09,05,15,29,1.60
2015,09,05,15,30,1.60
2015,09,05,15,31,1.60
2015,09,05,15,32,1.40
2015,09,05,15,33,2.50
2015,09,05,15,34,2.80
2015,09,05,15,35,2.90
2015,09,05,15,36,3.10
2015,09,05,15,37,4.90
2015,09,05,15,38,5.90
2015,09,05,15,39,3.30
2015,09,05,15,40,2.00
2015,09,05,15,41,2.10
2015,09,05,15,42,3.30
2015,09,05,15,43,4.80
2015,09,05,15,44,4.20
2015,09,05,15,45,3.60
2015,09,05,15,46,2.90
2015,09,05,15,47,2.30
2015,09,05,15,48,3.80
2015,09,05,15,49,5.20
2015,09,05,15,50,7.00
2015,09,05,15,51,5.70
2015,09,05,15,52,7.40
2015,09,05,15,53,7.50
2015,09,05,15,54,6.90
2015,09,05,15,55,9.00
2015,09,05,15,56,5.90
2015,09,05,15,57,4.30
2015,09,05,15,58,4.40
2015,09,05,15,59,4.30
2015,09,05,16,00,7.80
2015,09,05,16,01,8.20
2015,09,05,16,02,9.00
2015,09,05,16,03,7.90
2015,09,05,16,04,6.90
2015,09,05,16,05,5.90
2015,09,05,16,06,4.50
2015,09,05,16,07,7.60
2015,09,05,16,08,6.80
2015,09,05,16,09,6.60
2015,09,05,16,10,7.60
2015,09,05,16,11,4.50
2015,09,05,16,12,2.70
2015,09,05,16,13,6.80
2015,09,05,16,14,7.80
2015,09,05,16,15,6.40
2015,09,05,16,16,6.20
2015,09,05,16,17,5.10
2015,09,05,16,18,6.80
2015,09,05,16,19,5.70
2015,09,05,16,20,4.60
2015,09,05,16,21,4.30
2015,09,05,16,22,6.70
2015,09,05,16,23,5.10
2015,09,05,16,24,5.20
2015,09,05,16,25,5.30
2015,09,05,16,26,5.60
2015,09,05,16,27,6.40
2015,09,05,16,28,6.80
2015,09,05,16,29,7.70
2015,09,05,16,30,6.70
2015,09,05,16,31,9.10
2015,09,05,16,32,6.70
2015,09,05,16,33,6.30
2015,09,05,16,34,5.70
2015,09,05,16,35,6.80
2015,09,05,16,36,6.90
2015,09,05,16,37,5.60
2015,09,05,16,38,3.60
2015,09,05,16,39,4.00
2015,09,05,16,40,4.40
2015,09,05,16,41,3.50
2015,09,05,16,42,4.50
2015,09,05,16,43,4.00
2015,09,05,16,44,2.80
2015,09,05,16,45,4.70
2015,09,05,16,46,5.40
2015,09,05,16,47,5.20
2015,09,05,16,48,4.20
2015,09,05,16,49,2.20
2015,09,05,16,50,1.00
2015,09,05,16,51,2.10
2015,09,05,16,52,4.10
2015,09,05,16,53,4.50
2015,09,05,16,54,3.10
2015,09,05,16,55,2.80
2015,09,05,16,56,4.00
2015,09,05,16,57,4.80
2015,09,05,16,58,3.30
2015,09,05,16,59,3.60
2015,09,05,17,00,3.10
2015,09,05,17,01,2.50
2015,09,05,17,02,3.90
2015,09,05,17,03,3.20
2015,09,05,17,04,4.50
2015,09,05,17,05,4.20
2015,09,05,17,06,4.10
2015,09,05,17,07,2.10
2015,09,05,17,08,0.70
2015,09,05,17,09,2.50
2015,09,05,17,10,4.40
2015,09,05,17,11,3.50
2015,09,05,17,12,3.40
2015,09,05,17,13,2.50
2015,09,05,17,14,2.80
2015,09,05,17,15,0.30
2015,09,05,17,16,0.30
2015,09,05,17,17,0.60
2015,09,05,17,18,1.40
2015,09,05,17,19,0.70
2015,09,05,17,20,0.80
2015,09,05,17,21,1.00
2015,09,05,17,22,0.40
2015,09,05,17,23,0.70
2015,09,05,17,24,0.90
2015,09,05,17,25,1.90
2015,09,05,17,26,1.20
2015,09,05,17,27,2.80
2015,09,05,17,28,6.10
2015,09,05,17,29,5.40
2015,09,05,17,30,13.40
2015,09,05,17,31,6.00
2015,09,05,17,32,9.00
2015,09,05,17,33,9.10
2015,09,05,17,34,6.30
2015,09,05,17,35,11.50
2015,09,05,17,36,12.90
2015,09,05,17,37,13.40
2015,09,05,17,38,6.70
2015,09,05,17,39,15.10
2015,09,05,17,40,12.40
2015,09,05,17,41,12.00
2015,09,05,17,42,18.40
2015,09,05,17,43,10.50
2015,09,05,17,44,10.70
2015,09,05,17,45,14.70
2015,09,05,17,46,17.60
2015,09,05,17,47,23.10
2015,09,05,17,48,22.60
2015,09,05,17,49,16.70
2015,09,05,17,50,18.40
2015,09,05,17,51,22.30
2015,09,05,17,52,20.80
2015,09,05,17,53,20.40
2015,09,05,17,54,15.10
2015,09,05,17,55,19.90
2015,09,05,17,56,26.10
2015,09,05,17,57,19.50
2015,09,05,17,58,30.90
2015,09,05,17,59,26.80
2015,09,05,18,00,20.00
2015,09,05,18,01,24.10
2015,09,05,18,02,22.30
2015,09,05,18,03,25.10
2015,09,05,18,04,17.90
2015,09,05,18,05,27.50